DECAYED

STARLINK-1846, 47136 (Decayed)

Orbit data source: Space-Track

STARLINK-1846, 47136 was a payload satellite owned by SpaceX/Seattle (US) in LEO that was launched on Wed, 25 Nov 2020 UTC via an FALCON 9 launch vehicle from the Air Force Eastern Test Range (AFETR). Payload-class satellites include a variety of spacecraft equipped with specific instruments for various scientific and technological missions. These include communications satellites like Starlink; space stations such as the ISS; scientific satellites like the Hubble; Earth observation satellites from companies like Planet Labs, Umbra, and HawkEye 360; GPS; miniature CubeSats for education and research; and military/defense satellites.

Not visible in the next 10 days
Identifier
47136, 2020-088Q
Orbit
Decayed
Country
Flag of USUS
Related business
Manufacturer
SpaceX/Seattle
Mission
Decayed Commercial Communications
Bus & Motor
STARLINK, Unknown motor
Mass
260 kg wet, ~248 kg dry
Launch date (UTC)
2020-11-25 (6 years ago)
Launch vehicle
FALCON 9
Launch site
Air Force Eastern Test Range (AFETR)
Object type
Payload
Rocket body
Debris
Shape & HBR
Box + 1 Pan, 10.1 m
Radar Cross Section
13.562 m², Large (>1 m²)

Expand to show TLE details & history
Last TLE update: 1 year ago

TLE from 1 year ago
0 STARLINK-1846
1 47136U 20088Q   25052.89973759  .08858428  12390-4  83205-3 0  9993
2 47136  53.0267 169.1348 0008015 312.4421 147.5466 16.37757810235322
Epoch: 2025-02-21T21:35Z
TLE epoch observation values (Epoch: 2025-02-21T21:35:37.327Z)
Latitude
52.03446°
Longitude
159.59301°
Altitude
182.424 km
Speed
7.801 km/s
True Right ascension
18h 22m 12s
True Declination
51° 51' 10"
Sunlit
Object was in daylight at epoch
Visualization orbit readout
Latitude
Unknown
Longitude
Unknown
Altitude
Unknown
Speed
Unknown
Apparent Right ascension
Unknown
Apparent Declination
Unknown
Sunlit
N/A
Visualization observer readout
Local Sidereal Time
21:24:29
Azimuth
Unknown
Elevation
Unknown
Doppler factor
Unknown
Orbital elements
Apogee altitude
177.314 km
Perigee altitude
166.814 km
Semi-major axis
6,550.201 km
Eccentricity
0.0008
Inclination
53.0267°
RAAN
169.1348°
Arg. of periapsis
312.4421°
True anomaly
147.59584°
Mean anomaly
147.5466°
Eccentric anomaly
147.57123°
Mean motion
4.09413 °/min
Orbital period
87.93 mins
BSTAR
0.00083205
Loading maneuver chart data...
Computing Atmospheric mass density...

Documentation

Showing up to 5 results
|